Forside
METAR-TAF:

METAR-TAF

Lufthavne :

Versailles, Ohio, USA

Breddekreds: 40-12-16N, længdekreds: 084-31-55W, højde: 307 m

Aktuelle vejr

Denne rapport blev lavet for 24 minutter siden, kl. 15:30 UTC
Vind 3 kt fra nordnordvest
Temperatur 13°C
Fugtighed 94%
Tryk 1009 hPa
Sigt: 11.3 km
Overskyet i en højde af 700 ft

METAR: KVES 081530Z AUTO 33003KT 7SM OVC007 13/12 A2979 RMK AO2

Tid: 11:54 (15:54 UTC)


TAF: fraværende

Vejrobservationer og prognoser fra mere end 4000 lufthavne (METAR og TAF).

De gule og røde prikker repræsenterer de meteorologiske stationer.

Flyt musen over at se navnet på stationen.

Så klik over at se vejr observationer og prognoser.

At skifte det kort: Klik på de grønne knapper med et sort kors for at zoome ind; på den grønne knap med en bindestreg for at zoome ud; eller på de grønne pile for tilstødende kort.


METAR-TAF: